SCP
0 0 0 0 0 0 0 0 0 0 0 0 0 0 0 0 0 0 0 0 0 0 0 0 0 0 0 0 0 0 0 0
0 0 0 0 -0 -0 -0 0 0 0 0 0 0 0 0 0 0 0 0 0 0 0 0 0 0 0 0 0 0 0 0 0
0 0 0 -0 -0 -0 -0 0 0 0 0 0 0 0 0 0 0 0 0 0 0 0 0 0 0 0 0 0 0 0 0 0
0 -0 -0 -0 -0 -0 -0 0 0 0 0 0 0 0 0 0 0 0 0 0 0 0 0 0 0 0 0 0 0 0 0 0
0 0 0 0 0 0 0 0 0 0 0 0 0 0 0 0 0 0 0 0 0 0 0 0 0 0 0 0 0 0 0 0
-0 -0 0 0 0 0 0 0 0 0 0 0 0 0 0 0 0 0 0 0 0 0 0 0 0 0 0 0 0 0 0 0
-0 -0 0 0 0 0 0 0 0 0 0 0 0 0 0 0 0 0 0 0 0 0 0 0 0 0 0 0 0 0 0 0
0 0 0 0 0 0 0 0 0 0 0 0 0 0 0 0 0 0 0 0 0 0 0 0 0 0 0 0 0 0 0 0
0 0 0 0 0 0 0 0 0 0 0 0 0 0 0 0 0 0 0 0 0 0 0 0 0 0 0 0 0 0 0 0
0 0 0 0 0 0 0 0 0 0 0 0 0 0 0 0 0 0 0 0 0 0 0 0 0 0 0 0 0 0 0 0
0 0 0 0 0 0 0 0 0 0 0 0 0 0 0 0 0 0 0 0 0 0 0 0 0 0 0 0 0 0 0 0
0 0 0 0 0 0 0 0 0 0 0 0 0 0 0 0 0 0 0 0 0 0 0 0 0 0 0 0 0 0 0 0
0 0 0 0 0 0 0 0 0 0 0 0 0 0 0 0 0 0 0 0 0 0 0 0 0 0 0 0 0 0 0 0
0 0 0 0 0 0 0 0 0 0 0 0 0 0 0 0 0 0 0 0 0 0 0 0 0 0 0 0 0 0 0 0
0 0 0 0 0 0 0 0 0 0 0 0 0 0 0 0 0 0 0 0 0 0 0 0 0 0 0 0 0 0 0 0
0 0 0 0 0 0 0 0 0 0 0 0 0 0 0 0 0 0 0 0 0 0 0 0 0 0 0 0 0 0 0 0
0 0 0 0 0 0 0 0 0 0 0 0 0 0 0 0 0 0 0 0 0 0 0 0 0 0 0 0 0 0 0 0
0 0 0 0 0 0 0 0 0 0 0 0 0 0 0 0 0 0 0 0 0 0 0 0 0 0 0 0 0 0 0 0
0 0 0 0 0 0 0 0 0 0 0 0 0 0 0 0 0 0 0 0 0 0 0 0 0 0 0 0 0 0 0 0
0 0 0 0 0 0 0 0 0 0 0 0 0 0 0 0 0 0 0 0 0 0 0 0 0 0 0 0 0 0 0 0
Wind_Speed_500mb
10 9 9 9 10 15 22 32 44 52 61 67 69 68 65 63 65 72 78 74 79 88 79 79 78 78 81 79 74 71 68 63
11 7 7 7 4 3 10 18 28 41 51 59 64 64 64 62 61 69 73 75 84 86 85 83 84 83 82 78 75 72 68 64
18 18 16 11 7 7 13 22 26 31 44 54 60 61 66 66 64 68 73 75 79 85 88 87 84 86 86 83 79 75 72 65
13 14 22 23 17 20 25 31 34 37 45 55 63 64 66 68 66 68 74 75 80 85 92 90 89 89 87 80 76 73 67 59
30 28 29 35 30 34 37 39 44 47 52 60 68 67 64 68 69 69 71 75 81 88 93 93 91 90 89 83 77 72 66 58
54 55 50 39 39 41 42 42 49 55 54 60 64 68 63 69 72 72 73 75 77 85 93 96 96 95 93 86 81 73 67 59
70 70 59 44 45 43 47 56 58 61 61 61 66 68 67 66 73 73 72 74 79 84 92 97 101 96 92 85 79 74 68 63
71 54 53 55 53 58 62 63 64 61 60 63 66 66 67 63 70 76 74 73 74 78 86 97 101 98 94 84 78 73 68 62
61 56 57 59 59 54 51 53 58 59 58 59 64 65 65 68 73 77 78 73 74 79 85 95 101 99 94 85 79 73 69 63
55 52 46 40 41 45 45 45 46 50 51 50 55 61 63 67 72 74 74 75 71 77 83 93 99 94 92 86 80 73 70 63
27 30 33 34 34 34 36 39 38 36 37 39 42 48 53 55 61 64 70 70 68 73 78 87 86 83 89 86 81 76 75 64
23 20 21 21 22 22 24 25 25 25 25 27 28 29 35 41 48 53 57 59 56 63 66 70 72 79 85 84 82 76 77 74
16 15 15 13 11 11 12 14 15 14 16 17 19 21 27 30 36 40 44 46 40 47 53 56 68 76 80 82 83 81 79 84
14 16 15 14 12 9 8 8 9 11 13 14 15 16 15 18 23 26 29 33 37 42 48 56 68 74 76 79 74 78 84 86
23 24 20 15 11 10 10 12 14 14 15 15 14 15 17 20 21 25 27 34 37 38 44 52 64 70 73 75 77 79 83 88
28 27 23 21 18 15 14 15 21 22 22 22 20 20 18 16 12 15 21 19 21 25 33 41 52 61 68 75 80 83 84 80
32 29 27 26 22 21 22 24 21 25 24 20 17 17 17 15 14 14 15 17 21 26 31 35 36 40 49 59 61 67 74 84
33 33 32 28 23 26 26 27 25 22 21 19 15 15 14 12 11 10 13 17 19 23 25 29 32 38 45 51 54 60 60 63
34 35 36 33 32 31 28 25 23 21 19 15 12 10 7 6 8 11 14 16 19 21 24 28 31 39 45 46 49 52 51 57
41 39 36 34 33 32 29 26 21 18 14 11 7 5 5 6 8 10 15 18 21 23 26 27 31 36 40 41 43 44 46 50
Wind_Direction_500mb
227 216 214 217 231 250 258 250 248 244 238 236 238 239 238 234 231 230 233 234 233 233 220 220 219 216 212 212 213 214 215 214
203 204 194 171 149 247 267 271 261 247 239 235 236 239 236 234 232 232 234 240 236 226 225 220 219 215 213 213 213 213 213 210
189 196 198 196 190 243 261 266 265 252 242 236 234 239 235 233 230 228 235 237 231 227 224 219 216 214 214 213 212 212 210 210
190 222 224 223 235 253 249 256 253 252 243 236 235 238 237 232 230 229 234 235 232 230 227 222 216 217 216 214 215 212 212 211
257 274 268 250 246 256 247 251 249 249 245 240 239 240 244 234 231 229 231 231 233 231 229 222 219 218 217 213 212 211 209 205
274 279 270 254 263 270 262 266 265 256 253 250 245 242 247 238 234 235 235 238 239 233 227 222 216 220 218 215 211 210 206 199
288 293 287 275 282 279 279 276 269 263 260 254 248 245 246 242 238 238 241 242 239 233 228 221 218 220 217 216 213 209 207 201
288 280 276 279 277 277 276 270 267 265 260 258 252 247 246 244 241 241 241 245 245 239 233 226 224 219 219 215 214 212 207 201
275 273 276 278 278 274 268 267 267 266 260 257 253 249 245 243 241 242 243 243 247 245 238 231 224 219 218 216 213 211 208 208
270 273 274 272 270 269 268 267 265 264 261 256 253 251 246 243 242 243 245 245 244 247 241 232 225 219 220 217 214 211 208 215
255 262 266 268 268 267 265 265 266 264 261 256 252 252 251 248 246 245 246 246 244 244 243 234 223 220 224 220 217 214 212 222
254 253 255 253 254 251 250 252 248 244 243 243 242 241 242 240 241 244 246 248 246 249 246 238 218 219 224 226 224 223 222 237
237 234 232 227 227 230 224 226 214 210 215 222 220 218 225 231 233 235 241 247 250 250 248 229 212 219 225 230 231 229 234 243
199 191 181 167 159 154 155 164 158 168 171 185 190 188 196 215 227 230 234 237 236 240 235 220 206 219 226 232 232 240 240 246
193 187 186 181 179 184 176 178 171 172 163 162 163 163 170 181 193 213 224 230 237 232 228 219 211 216 225 230 235 236 245 250
190 189 185 177 176 169 169 163 149 140 139 141 143 142 148 158 187 219 237 249 253 245 236 228 227 228 228 233 236 243 249 254
187 188 184 172 175 168 157 144 143 141 136 135 140 143 146 163 186 209 220 228 240 245 248 251 249 248 244 247 251 250 250 260
188 185 177 168 170 163 154 146 144 139 136 134 145 149 152 165 184 203 211 214 226 240 245 246 250 250 251 251 253 251 249 248
184 172 164 162 164 157 149 143 137 135 129 134 143 138 142 172 200 218 228 229 237 253 252 255 253 251 253 252 252 251 245 246
161 157 153 152 155 151 149 149 153 150 153 153 149 155 177 219 238 247 253 256 257 256 264 262 259 256 255 252 248 248 248 246
Wind_Speed_850mb
10 9 9 9 10 15 22 32 44 52 61 67 69 68 65 63 65 72 78 74 79 88 79 79 78 78 81 79 74 71 68 63
11 7 7 7 4 3 10 18 28 41 51 59 64 64 64 62 61 69 73 75 84 86 85 83 84 83 82 78 75 72 68 64
18 18 16 11 7 7 13 22 26 31 44 54 60 61 66 66 64 68 73 75 79 85 88 87 84 86 86 83 79 75 72 65
13 14 22 23 17 20 25 31 34 37 45 55 63 64 66 68 66 68 74 75 80 85 92 90 89 89 87 80 76 73 67 59
30 28 29 35 30 34 37 39 44 47 52 60 68 67 64 68 69 69 71 75 81 88 93 93 91 90 89 83 77 72 66 58
54 55 50 39 39 41 42 42 49 55 54 60 64 68 63 69 72 72 73 75 77 85 93 96 96 95 93 86 81 73 67 59
70 70 59 44 45 43 47 56 58 61 61 61 66 68 67 66 73 73 72 74 79 84 92 97 101 96 92 85 79 74 68 63
71 54 53 55 53 58 62 63 64 61 60 63 66 66 67 63 70 76 74 73 74 78 86 97 101 98 94 84 78 73 68 62
61 56 57 59 59 54 51 53 58 59 58 59 64 65 65 68 73 77 78 73 74 79 85 95 101 99 94 85 79 73 69 63
55 52 46 40 41 45 45 45 46 50 51 50 55 61 63 67 72 74 74 75 71 77 83 93 99 94 92 86 80 73 70 63
27 30 33 34 34 34 36 39 38 36 37 39 42 48 53 55 61 64 70 70 68 73 78 87 86 83 89 86 81 76 75 64
23 20 21 21 22 22 24 25 25 25 25 27 28 29 35 41 48 53 57 59 56 63 66 70 72 79 85 84 82 76 77 74
16 15 15 13 11 11 12 14 15 14 16 17 19 21 27 30 36 40 44 46 40 47 53 56 68 76 80 82 83 81 79 84
14 16 15 14 12 9 8 8 9 11 13 14 15 16 15 18 23 26 29 33 37 42 48 56 68 74 76 79 74 78 84 86
23 24 20 15 11 10 10 12 14 14 15 15 14 15 17 20 21 25 27 34 37 38 44 52 64 70 73 75 77 79 83 88
28 27 23 21 18 15 14 15 21 22 22 22 20 20 18 16 12 15 21 19 21 25 33 41 52 61 68 75 80 83 84 80
32 29 27 26 22 21 22 24 21 25 24 20 17 17 17 15 14 14 15 17 21 26 31 35 36 40 49 59 61 67 74 84
33 33 32 28 23 26 26 27 25 22 21 19 15 15 14 12 11 10 13 17 19 23 25 29 32 38 45 51 54 60 60 63
34 35 36 33 32 31 28 25 23 21 19 15 12 10 7 6 8 11 14 16 19 21 24 28 31 39 45 46 49 52 51 57
41 39 36 34 33 32 29 26 21 18 14 11 7 5 5 6 8 10 15 18 21 23 26 27 31 36 40 41 43 44 46 50
Wind_Direction_850mb
227 216 214 217 231 250 258 250 248 244 238 236 238 239 238 234 231 230 233 234 233 233 220 220 219 216 212 212 213 214 215 214
203 204 194 171 149 247 267 271 261 247 239 235 236 239 236 234 232 232 234 240 236 226 225 220 219 215 213 213 213 213 213 210
189 196 198 196 190 243 261 266 265 252 242 236 234 239 235 233 230 228 235 237 231 227 224 219 216 214 214 213 212 212 210 210
190 222 224 223 235 253 249 256 253 252 243 236 235 238 237 232 230 229 234 235 232 230 227 222 216 217 216 214 215 212 212 211
257 274 268 250 246 256 247 251 249 249 245 240 239 240 244 234 231 229 231 231 233 231 229 222 219 218 217 213 212 211 209 205
274 279 270 254 263 270 262 266 265 256 253 250 245 242 247 238 234 235 235 238 239 233 227 222 216 220 218 215 211 210 206 199
288 293 287 275 282 279 279 276 269 263 260 254 248 245 246 242 238 238 241 242 239 233 228 221 218 220 217 216 213 209 207 201
288 280 276 279 277 277 276 270 267 265 260 258 252 247 246 244 241 241 241 245 245 239 233 226 224 219 219 215 214 212 207 201
275 273 276 278 278 274 268 267 267 266 260 257 253 249 245 243 241 242 243 243 247 245 238 231 224 219 218 216 213 211 208 208
270 273 274 272 270 269 268 267 265 264 261 256 253 251 246 243 242 243 245 245 244 247 241 232 225 219 220 217 214 211 208 215
255 262 266 268 268 267 265 265 266 264 261 256 252 252 251 248 246 245 246 246 244 244 243 234 223 220 224 220 217 214 212 222
254 253 255 253 254 251 250 252 248 244 243 243 242 241 242 240 241 244 246 248 246 249 246 238 218 219 224 226 224 223 222 237
237 234 232 227 227 230 224 226 214 210 215 222 220 218 225 231 233 235 241 247 250 250 248 229 212 219 225 230 231 229 234 243
199 191 181 167 159 154 155 164 158 168 171 185 190 188 196 215 227 230 234 237 236 240 235 220 206 219 226 232 232 240 240 246
193 187 186 181 179 184 176 178 171 172 163 162 163 163 170 181 193 213 224 230 237 232 228 219 211 216 225 230 235 236 245 250
190 189 185 177 176 169 169 163 149 140 139 141 143 142 148 158 187 219 237 249 253 245 236 228 227 228 228 233 236 243 249 254
187 188 184 172 175 168 157 144 143 141 136 135 140 143 146 163 186 209 220 228 240 245 248 251 249 248 244 247 251 250 250 260
188 185 177 168 170 163 154 146 144 139 136 134 145 149 152 165 184 203 211 214 226 240 245 246 250 250 251 251 253 251 249 248
184 172 164 162 164 157 149 143 137 135 129 134 143 138 142 172 200 218 228 229 237 253 252 255 253 251 253 252 252 251 245 246
161 157 153 152 155 151 149 149 153 150 153 153 149 155 177 219 238 247 253 256 257 256 264 262 259 256 255 252 248 248 248 246